User: anonymous   Login
Location: Tucson
(32.2220°N, 110.9260°W)
Time: 04:45:01
(UTC-07:00)
Language:

GENESIS II - Orbit

View from above orbital plane
View from above orbital plane
View from above satellite
View from above satellite

Ground track
Ground track

The orbit data is extracted from the following two-line orbital elements,

1 31789U 07028A   19288.82603780  .00000368  00000-0  28528-4 0  9993
2 31789  64.5039  65.9168 0050748 274.8934  84.6396 15.17027797677904
Epoch (UTC): 15 October 2019 19:49:29
Eccentricity: 0.0050748
inclination: 64.5039°
perigee height: 480 km
apogee height: 550 km
right ascension of ascending node: 65.9168°
argument of perigee: 274.8934°
revolutions per day: 15.17027797
mean anomaly at epoch: 84.6396°
orbit number at epoch: 67790

The dashed part of the orbit path shows where the satellite is in the earth's shadow,  

DLR